TJS-1

Last updated on Thu Nov 21 2024 00:02:43 GMT+0000 (Coordinated Universal Time)

1 40892U 15046A 24325.63244646 -.00000155 00000+0 00000+0 0 9990 2 40892 0.0692 278.6056 0006278 16.9408 147.2590 1.00271227 33812
UTC large
Height (km)
Speed (km/s)
/
Latitude / Longitude
Inclination (degrees)
Orbital Period (minutes)
Azimuth
Elevation
Range (km)
Doppler Factor

Next 0 passes for location: London (51.5072 / 0.1276)

Sorry there are no passes over London.